Regional Weather Roundup
Issued by NWS

Home | Current Version | Previous Version | Graphics & Text | Print | Product List | Glossary On
Versions: 1 2 3 4 5 6 7 8 9 10 11 12 13 14 15 16 17 18 19 20 21 22 23 24 25 26 27 28 29 30 31 32 33 34 35 36 37 38 39 40 41 42 43 44 45 46 47 48 49 50
000
ASUS44 KMEG 070000
RWRTN
TENNESSEE HOURLY STATE WEATHER ROUNDUP
NATIONAL WEATHER SERVICE MEMPHIS TN
700 PM CDT MON JUL 06 2015

TNZ002-004-019-021-049-052-054-088>092-070100-
WEST TENNESSEE

CITY           SKY/WX    TMP DP  RH WIND       PRES   REMARKS
MEMPHIS INTL   PTSUNNY   84  73  69 S13       30.00F HX  90
NWS MEMPHIS      N/A     84 N/A N/A MISG        N/A
JACKSON        MOSUNNY   83  74  74 S7        30.01F
DYERSBURG        N/A    N/A N/A N/A MISG        N/A
$$

TNZ008-025-027-028-033-062-065-066-070100-
NORTH MIDDLE TENNESSEE

CITY           SKY/WX    TMP DP  RH WIND       PRES   REMARKS
NASHVILLE      MOSUNNY   84  72  67 S7        30.03F
CLARKSVILLE    SUNNY     83  71  67 S9        30.01F
COOKEVILLE     SUNNY     82  73  74 CALM      30.07F
CROSSVILLE     SUNNY     77  66  68 W5        30.13F
$$

TNZ061-075-076-078-094-096-097-070100-
SOUTH MIDDLE TENNESSEE

CITY           SKY/WX    TMP DP  RH WIND       PRES   REMARKS
SHELBYVILLE    SUNNY     82  73  74 S8          N/A
$$

TNZ017-018-042-046-047-070100-
NORTHEAST TENNESSEE

CITY           SKY/WX    TMP DP  RH WIND       PRES   REMARKS
TRI CITIES     CLEAR     79  64  60 W3        30.11F
$$

TNZ012-013-036-069-073-074-070100-
CENTRAL EAST TENNESSEE

CITY           SKY/WX    TMP DP  RH WIND       PRES   REMARKS
KNOXVILLE      PTCLDY    81  68  64 SW5       30.07F
OAK RIDGE      CLEAR     83  68  60 SW5       30.08F
GATLINBURG     CLEAR     82  64  54 W3        30.08S
$$

TNZ083-085-099-070100-
SOUTHEAST TENNESSEE

CITY           SKY/WX    TMP DP  RH WIND       PRES   REMARKS
CHATTANOOGA    PTCLDY    84  68  58 SW5       30.08F
$$

SKY/WX REPORTED AS FAIR MEANS FEW OR NO CLOUDS BELOW
12 THOUSAND FEET.



USA.gov is the U.S. government's official web portal to all federal, state and local government web resources and services.